Regional Weather Roundup
Issued by NWS

Current Version | Previous Version | Text Only | Print | Product List | Glossary On
Versions: 1 2 3 4 5 6 7 8 9 10 11 12 13 14 15 16 17 18 19 20 21 22 23 24 25 26 27 28 29 30 31 32 33 34 35 36 37 38 39 40 41 42 43 44 45 46 47 48 49 50
000
ASCA44 KEWX 052220
RWRMX

LATIN AMERICA AND CARIBBEAN REGIONAL WEATHER ROUNDUP
NATIONAL WEATHER SERVICE AUSTIN/SAN ANTONIO TX
400 PM CST SAT DEC 05 2020

NOTE: "FAIR" INDICATED FEW OR NO CLOUDS BELOW 12,000 FEET WITH NO
SIGNIFICANT WEATHER AND/OR OBSTRUCTIONS TO VISIBILITY.

BAJA CALIFORNIA

CITY           SKY/WX    TMP DP  RH WIND       PRES   REMARKS
LORETO         SUNNY     72  57  60 N21       30.06
LA PAZ         SUNNY     73  34  23 NE20      30.06F
MEXICALI       SUNNY     70  10  10 CALM      30.23F
S.J. DEL CABO  SUNNY     75  32  20 N17       30.02F
TIJUANA        MOSUNNY   72  18  13 NW10      30.22F

NORTHWESTERN MEXICO

CITY           SKY/WX    TMP DP  RH WIND       PRES   REMARKS
CULIACAN       SUNNY     79  27  14 W5        29.97F
DURANGO        MOSUNNY   72 -13   3 W12       30.11
GUAYMAS        SUNNY     70  37  30 W15       30.04F
HERMOSILLO     SUNNY     77  23  13 N8        30.12F
CD. JUAREZ     MOSUNNY   57  16  19 NW7       30.25F
LOS MOCHIS     SUNNY     75  25  15 NW15      30.02F
OBREGON        SUNNY     75  21  13 W6        30.03F

NORTHEASTERN MEXICO

CITY           SKY/WX    TMP DP  RH WIND       PRES   REMARKS
CHIHUAHUA      PTSUNNY   45  27  49 NE5       30.31S WCI  42
MATAMOROS      LGT RAIN  50  50 100 NW14      30.15S WCI  45
MONCLOVA         N/A    N/A N/A N/A MISG        N/A
MONTERREY      MOSUNNY   59  34  38 E8        30.14S
NUEVO LAREDO   PTSUNNY   57  36  44 CALM      30.20S
PIEDRAS NEGRAS MOSUNNY   61  45  55 NW12      30.22S
REYNOSA        CLOUDY    50  46  87 NW5       30.17S HAZE    WCI  48
SALTILLO       SUNNY     54  41  62 N6        30.15S
TORREON        SUNNY     59  23  25 NW7       30.18F
CD. VICTORIA   CLOUDY    55  39  54 N12       30.14S

WESTERN MEXICO

CITY           SKY/WX    TMP DP  RH WIND       PRES   REMARKS
AGUASCALIENTES PTSUNNY   70  39  32 SW18      30.18F
COLIMA         MOSUNNY   82  63  51 CALM      30.00F
DEL BAJIO      PTSUNNY   73  43  33 SW7       30.22F
GUADALAJARA    PTSUNNY   77  45  31 CALM      30.11F
MANZANILLO     PTSUNNY   86  77  74 W23       29.89F HX  97
MAZATLAN       MOSUNNY   79  50  36 NW12      29.95F
P. VALLARTA    PTSUNNY   77  68  73 SW8       29.93F
URUAPAN        PTSUNNY   68  55  64 SW7       30.15F
ZACATECAS      PTSUNNY   63  37  39 SW23G40   30.18F

CENTRAL MEXICO

CITY           SKY/WX    TMP DP  RH WIND       PRES   REMARKS
CUERNAVACA     MOSUNNY   82  48  30 S3        30.07F
MEXICO CITY    MOSUNNY   72  39  30 S8        30.24F
MORELIA        PTSUNNY   70  46  43 S12       30.17F
POZA RICA      CLOUDY    66  59  77 CALM      30.05F
PUEBLA         PTSUNNY   68  45  42 S12       30.26F
QUERETARO      MOSUNNY   73  41  31 W10       30.21F
S. LUIS POTOSI PTSUNNY   73  48  40 W8        30.14F
TAMPICO        CLOUDY    66  50  55 NE6       30.07F
TOLUCA         PTSUNNY   63  39  42 S14       30.32S

SOUTHERN MEXICO

CITY           SKY/WX    TMP DP  RH WIND       PRES   REMARKS
ACAPULCO       PTSUNNY   86  73  66 W6        29.84F HX  93
B. DE HUATULCO MOSUNNY   84  73  70 CALM      29.88F HX  91
OAXACA         PTSUNNY   79  43  27 S8        30.13F
P. ESCONDIDO   MOSUNNY   84  73  70 S5        29.86  HX  91
VERACRUZ       PTSUNNY   73  61  64 N14       29.99F
ZIHUATANEJO    MOSUNNY   88  73  62 SW9       29.90F HX  96

YUCATAN PENINSULA

CITY           SKY/WX    TMP DP  RH WIND       PRES   REMARKS
CAMPECHE       MOSUNNY   81  73  78 NW5       29.93S
CANCUN         PTSUNNY   81  73  78 SE9       29.94S
CHETUMAL       MOSUNNY   84  73  70 CALM      29.93S HX  91
CD. DEL CARMEN CLOUDY    77  70  78 S6        29.95F HAZE
COZUMEL        MOSUNNY   81  77  89 E3        29.92F
MERIDA         PTSUNNY   82  72  69 NE8       29.92F
MINATITLAN       N/A    N/A N/A N/A MISG        N/A
TAPACHULA      PTSUNNY   84  73  70 SW3       29.86F HX  91
TUX. GUTIERREZ PTSUNNY   81  63  54 NW2       29.97F
VILLAHERMOSA   DRZL/FOG  70  70 100 SW7       29.99F VSB 1/2

CENTRAL AMERICA

CITY           SKY/WX    TMP DP  RH WIND       PRES   REMARKS
BELIZE CITY    MOSUNNY   82  77  83 N2        29.92S HX  91
MANAGUA        PTCLDY    86  73  66 E7        29.80S HX  93

CARIBBEAN

CITY           SKY/WX    TMP DP  RH WIND       PRES   REMARKS
ARUBA          PTCLDY    81  75  83 E15       29.89R
CURACAO        PTCLDY    81  73  78 E12       29.89S
KINGSTON       PTCLDY    82  73  74 SE14      29.92S
NASSAU         MOCLDY    75  68  78 VRB2      30.02R
SAN JUAN       MOCLDY    79  70  73 E6        29.99R
SANTO DOMINGO  PTCLDY    79  73  83 E5        29.94S
ST. CROIX      CLOUDY    81  70  69 NE7       29.98R
ST. MAARTEN    PTCLDY    79  70  73 NE6       30.00R
ST. THOMAS     CLOUDY    81  66  61 NE5       29.97R

$$




USA.gov is the U.S. government's official web portal to all federal, state and local government web resources and services.